This demonstration page uses our WeatherBlox Daily Observations layout. Learn more.

36.17497, -115.13722

Hourly Observations for February 29, 2016

Temp ( °F °C ) Dew Point ( °F °C ) Humidity (%) Winds ( mph kmh ) Pressure ( in mb ) Visibility ( mi km ) Precip ( " mm )
12:53 am 00:53 Clear 58 14.4 28 -2.2 32 32 W 3 6 30.04 1017 10 16.0934 0 0
1:53 am 01:53 Clear 59 15 28 -2.2 31 31 W 6 9 30.03 1017 10 16.0934 0 0
2:53 am 02:53 Clear 59 15 27 -2.8 29 29 N 3 6 30.02 1017 10 16.0934 0 0
3:53 am 03:53 Clear 57 13.9 28 -2.2 33 33 N 5 7 30.03 1017 10 16.0934 0 0
4:53 am 04:53 Clear 57 13.9 28 -2.2 33 33 NNW 3 6 30.05 1018 10 16.0934 0 0
5:53 am 05:53 Clear 59 15 28 -2.2 31 31 NNW 12 19 30.07 1018 10 16.0934 0 0
6:53 am 06:53 Sunny 57 13.9 28 -2.2 33 33 N 5 7 30.09 1019 10 16.0934 0 0
7:53 am 07:53 Sunny 65 18.3 28 -2.2 25 25 WNW 9 15 30.1 1019 10 16.0934 0 0
8:53 am 08:53 Sunny 68 20 27 -2.8 21 21 VRB 3 6 30.11 1020 10 16.0934 0 0
9:53 am 09:53 Sunny 69 20.6 30 -1.1 23 23 ESE 7 11 30.11 1020 10 16.0934 0 0
10:53 am 10:53 Sunny 72 22.2 28 -2.2 19 19 SE 3 6 30.11 1020 10 16.0934 0 0
11:53 am 11:53 Sunny 74 23.3 28 -2.2 18 18 ESE 7 11 30.08 1019 10 16.0934 0 0
12:53 pm 12:53 Sunny 77 25 27 -2.8 16 16 Calm 30.04 1017 10 16.0934 0 0
1:53 pm 13:53 Sunny 78 25.6 25 -3.9 14 14 Calm 30.01 1016 10 16.0934 0 0
2:53 pm 14:53 Sunny 80 26.7 24 -4.4 13 13 S 5 7 30 1016 10 16.0934 0 0
3:53 pm 15:53 Sunny 82 27.8 20 -6.7 10 10 N 8 13 29.99 1016 10 16.0934 0 0
4:53 pm 16:53 Sunny 81 27.2 19 -7.2 10 10 N 12 19 30 1016 10 16.0934 0 0
5:53 pm 17:53 Clear 77 25 19 -7.2 11 11 NNW 8 13 30.01 1016 10 16.0934 0 0
6:53 pm 18:53 Clear 73 22.8 25 -3.9 17 17 N 5 7 30.05 1018 10 16.0934 0 0
7:53 pm 19:53 Clear 71 21.7 26 -3.3 19 19 NNE 8 13 30.06 1018 10 16.0934 0 0
8:53 pm 20:53 Clear 66 18.9 22 -5.6 19 19 NNW 7 11 30.07 1018 10 16.0934 0 0
9:53 pm 21:53 Clear 63 17.2 23 -5 22 22 N 5 7 30.09 1019 10 16.0934 0 0
10:53 pm 22:53 Clear 65 18.3 22 -5.6 19 19 NW 9 15 30.08 1019 10 16.0934 0 0
11:53 pm 23:53 Clear 63 17.2 22 -5.6 21 21 WNW 9 15 30.08 1019 10 16.0934 0 0

Powered by AerisWeather